This demonstration page uses our WeatherBlox Daily Observations layout. Learn more.

Left ArrowRight Arrow

Hourly Observations for August 16, 2022

Temp ( °F °C ) Dew Point ( °F °C ) Humidity (%) Winds ( mph kmh ) Pressure ( in mb ) Visibility ( mi km ) Precip ( " mm )
12:51 am 00:51 Clear 74 23.3 63 17.2 69 69 E 5 7 29.76 1008 10 16 0.00 0.00
1:51 am 01:51 Mostly Clear 74 23.3 65 18.3 74 74 NNE 3 6 29.75 1008 10 16 0.00 0.00
2:51 am 02:51 Mostly Clear 72 22.2 63 17.2 73 73 Calm 29.77 1008 10 16 0.00 0.00
3:51 am 03:51 Mostly Clear 71 21.7 64 17.8 79 79 N 5 7 29.76 1008 10 16 0.00 0.00
4:51 am 04:51 Clear 71 21.7 64 17.8 79 79 Calm 29.76 1008 10 16 0.00 0.00
5:51 am 05:51 Mostly Sunny 69 20.6 64 17.8 84 84 NNE 5 7 29.79 1009 10 16 0.00 0.00
6:51 am 06:51 Mostly Sunny 76 24.4 65 18.3 69 69 Calm 29.80 1009 10 16 0.00 0.00
7:51 am 07:51 Sunny 80 26.7 63 17.2 56 56 ESE 13 20 29.81 1010 10 16 0.00 0.00
8:51 am 08:51 Sunny 84 28.9 62 16.7 48 48 ESE 8 13 29.80 1009 10 16 0.00 0.00
9:51 am 09:51 Sunny 87 30.6 62 16.7 43 43 ESE 10 17 29.81 1009 10 16 0.00 0.00
10:51 am 10:51 Sunny 88 31.1 62 16.7 42 42 Calm 29.80 1009 10 16 0.00 0.00
11:51 am 11:51 Sunny 90 32.2 63 17.2 41 41 SW 9 15 29.78 1009 10 16 0.00 0.00
12:51 pm 12:51 Sunny 92 33.3 62 16.7 37 37 VRB 6 9 29.77 1008 10 16 0.00 0.00
1:51 pm 13:51 Sunny 93 33.9 61 16.1 35 35 SSE 5 7 29.74 1007 10 16 0.00 0.00
2:51 pm 14:51 Sunny 95 35 59 15 30 30 NW 7 11 29.70 1006 10 16 0.00 0.00
3:51 pm 15:51 Sunny 95 35 61 16.1 33 33 WNW 8 13 29.69 1005 10 16 0.00 0.00
4:51 pm 16:51 Sunny 95 35 61 16.1 33 33 NNW 7 11 29.68 1005 10 16 0.00 0.00
5:15 pm 17:15 Sunny with Nearby Thunderstorms 94 34.4 61 16.1 34 34 undefined N/A 29.56 1001 10 16 0.00 0.00
5:51 pm 17:51 Sunny 94 34.4 63 17.2 36 36 NNW 8 13 29.69 1005 10 16 0.00 0.00
6:51 pm 18:51 Sunny 92 33.3 62 16.7 37 37 NNE 12 19 29.69 1006 10 16 0.00 0.00
7:51 pm 19:51 Clear 86 30 58 14.4 39 39 NE 17 28 29.72 1006 10 16 0.00 0.00
8:51 pm 20:51 Clear 83 28.3 60 15.6 46 46 W 10 17 29.75 1007 10 16 0.00 0.00
9:51 pm 21:51 Clear 81 27.2 62 16.7 53 53 E 8 13 29.78 1009 10 16 0.00 0.00
10:51 pm 22:51 Partly Cloudy 82 27.8 60 15.6 47 47 S 3 6 29.81 1009 10 16 0.00 0.00
11:51 pm 23:51 Clear 76 24.4 64 17.8 67 67 S 6 9 29.83 1010 10 16 0.00 0.00

Powered by AerisWeather